星链-31633 (STARLINK-31633 )
导读
STARLINK-31633是美国太空探索技术公司SpaceX星链星座中的一颗卫星,于2024年3月25日发射入轨。星链项目旨在构建全球卫星互联网星座,为全球偏远地区、海洋航空等场景提供高速互联网接入服务,该卫星的发射进一步扩充了星链星座的在轨规模,持续推进项目组网进程。
Basic Information
目录编号:
59331
目录名称:
STARLINK-31633
国际标识:
2024-057M
轨道中心:
EARTH
卫星名称:
星链-31633
卫星全名:
星链-31633 (STARLINK-31633 )
卫星状态:
在轨 (已飞行893 天)
发射日期:
2024-03-25 UTC
国别 :
美国
(US)
星等 :
--
Orbit Information
| 数据来源 | 国际轨道数据 | AOE轨道数据 |
| 星历时间 | 2026-09-03T15:45:35+0800 23小时前 查看轨道信息 | 2026-08-29T08:00:00+0800 6天前 查看轨道信息 |
| 半长轴 | 6861.269km | 6861.184km |
| 偏心率 | 0.0000953 | 0.0001343 |
| 轨道倾角 | 43.002° | 43.001° |
| 近地点辐角 | 258.166° | 284.544° |
| 升交点赤经 | 264.079° | 294.144° |
| 平近点角 | 101.908° | 286.794° |
| 近地点 | 482.478km | 482.125km |
| 远地点 | 483.786km | 483.969km |
| 周期 | 94.268分钟 | 94.267分钟 |
| 每日圈数 | 15.275526 | 15.275808 |
Detailed Information
固有亮度:
5
最大亮度:
0.3
卫星平台:
Starlink v2.0 mini
覆盖范围:
全球
运营商:
太空探索技术公司
运营商所在国:
美国
制造商(研发单位):
太空探索技术公司
制造商所在国:
美国
使用方式:
暂无
Satellite Introduction
星链(Starlink)计划是由太空探索技术公司(SpaceX)提出的一个巨型低轨卫星互联网星座项目,计划在2019年至2024年间在太空搭建由约1.2万颗卫星组成的“星链”网络,其中1584颗将部署在地球上空550千米处的近地轨道,并从2020年开始工作。该卫星仍在工作。
2D Orbit Map
3D Orbit Map
Orbit Altitude Analysis Chart
Orbit Inclination Analysis Chart
Orbit Comprehensive Analysis Chart
View Comprehensive ChartConjunction Data List
| Event ID | Objects | TCA | Miss Dist (km) | Collision Risk Probability | Collision Risk Index (CRI) | Action |
|---|---|---|---|---|---|---|
| CDM_260829-112005-933106-791722 |
STARLINK-31633
(59331)
STARLINK-36722
(67917) | 2026-08-29T 11:20:10+0000 |
0.149 km
中距离 | 7.506152E-4 高风险 | 0.93 | |
| CDM_260904-043805-933106-791721 |
STARLINK-31633
(59331)
STARLINK-36722
(67917) | 2026-09-04T 04:38:52+0000 |
0.673 km
远距离 | 4.689378E-5 中风险 | 0.68 | |
| CDM_260903-182605-933106-791721 |
STARLINK-31633
(59331)
STARLINK-36722
(67917) | 2026-09-03T 18:26:52+0000 |
1.153 km
极远距离 | 7.785573E-6 低风险 | 0.53 | |
| CDM_260905-070605-933106-681121 |
STARLINK-31633
(59331)
STARLINK-36045
(66811) | 2026-09-05T 07:06:24+0000 |
1.256 km
极远距离 | 6.683759E-6 低风险 | 0.52 | |
| CDM_260903-165205-933106-791721 |
STARLINK-31633
(59331)
STARLINK-36722
(67917) | 2026-09-03T 16:52:43+0000 |
1.593 km
极远距离 | 2.711578E-6 低风险 | 0.44 | |
| CDM_260904-030405-933106-791721 |
STARLINK-31633
(59331)
STARLINK-36722
(67917) | 2026-09-04T 03:04:43+0000 |
1.854 km
极远距离 | 1.773276E-6 低风险 | 0.4 | |
| CDM_260905-053205-933106-681121 |
STARLINK-31633
(59331)
STARLINK-36045
(66811) | 2026-09-05T 05:32:15+0000 |
1.967 km
极远距离 | 1.731993E-6 低风险 | 0.4 | |
| CDM_260829-094605-933106-791722 |
STARLINK-31633
(59331)
STARLINK-36722
(67917) | 2026-08-29T 09:46:01+0000 |
2.108 km
极远距离 | 1.300886E-6 低风险 | 0.37 | |
| CDM_260829-125405-933106-791722 |
STARLINK-31633
(59331)
STARLINK-36722
(67917) | 2026-08-29T 12:54:19+0000 |
2.462 km
极远距离 | 9.621649E-7 极低风险 | 0.35 | |
| CDM_260903-200105-933106-791721 |
STARLINK-31633
(59331)
STARLINK-36722
(67917) | 2026-09-03T 20:01:01+0000 |
2.724 km
极远距离 | 8.250861E-7 极低风险 | 0.33 |

